Regional Weather Roundup
Issued by NWS

Home | Current Version | Previous Version | Graphics & Text | Print | Product List | Glossary On
Versions: 1 2 3 4 5 6 7 8 9 10 11 12 13 14 15 16 17 18 19 20 21 22 23 24 25 26 27 28 29 30 31 32 33 34 35 36 37 38 39 40 41 42 43 44 45 46 47 48 49 50
000
ASUS43 KLMK 040610
RWRKY
KENTUCKY REGIONAL WEATHER ROUNDUP
NATIONAL WEATHER SERVICE LOUISVILLE KY
100 AM EST SUN DEC 04 2016

NOTE "FAIR" INDICATES FEW OR NO CLOUDS BELOW 12,000 FEET
WITH NO SIGNIFICANT WEATHER AND/OR OBSTRUCTIONS TO VISIBILITY.

KYZ001>023-026-027-061>063-070>075-040700-
WESTERN AND SOUTH CENTRAL KENTUCKY

CITY           SKY/WX    TMP DP  RH WIND       PRES   REMARKS
PADUCAH        LGT RAIN  39  36  89 NE5       30.19F
HENDERSON      CLOUDY    41  28  60 E7        30.23F
OWENSBORO      LGT RAIN  41  31  67 E7        30.23F
HOPKINSVILLE   DRIZZLE   39  36  87 E8        30.18S WCI  34
BOWLING GREEN  CLOUDY    41  34  76 E5        30.21F
GLASGOW        CLOUDY    39  34  81 E6        30.21F WCI  35
$$

KYZ024-025-028>034-038-045-046-053-040700-
NORTH CENTRAL KENTUCKY

CITY           SKY/WX    TMP DP  RH WIND       PRES   REMARKS
LOUISVILLE/SDF CLOUDY    41  28  60 E5        30.25F
LOUISVILLE/LOU CLOUDY    41  29  62 E3        30.26F
FORT KNOX      PTCLDY    39  29  68 NE3       30.21F
$$

KYZ035>037-039>044-047>052-055>060-089>105-040700-
NORTHEAST KENTUCKY

CITY           SKY/WX    TMP DP  RH WIND       PRES   REMARKS
LEXINGTON      CLOUDY    39  28  64 E6        30.23F WCI  35
COVINGTON      CLOUDY    37  30  75 E5        30.25F WCI  33
FRANKFORT      CLOUDY    39  28  64 E6        30.23F WCI  35
$$

KYZ054-064>069-076>088-106>120-040700-
SOUTHEAST KENTUCKY

CITY           SKY/WX    TMP DP  RH WIND       PRES   REMARKS
JACKSON        CLOUDY    37  29  72 VRB5      30.22F WCI  33
LONDON         CLOUDY    39  28  64 SE5       30.22F
SOMERSET       CLOUDY    37  30  75 CALM      30.24F
MIDDLESBORO    CLOUDY    40  34  80 CALM      30.24F
MONTICELLO     LGT RAIN  40  31  70 VRB5      30.23F
$$




USA.gov is the U.S. government's official web portal to all federal, state and local government web resources and services.